Back to catalog

MOLNIYA 1-56

AliveCommunicationsHEO
NORAD 13890·PAYLOAD·🇷🇺 Russia

Launched Mar 16, 1983 from Plesetsk Cosmodrome

Loading…

Next Passes (next 24 hours)

TLE

AgingSource: Space-Track

Epoch: Aug 25, 2026, 02:41 UTC

1 13890U 83019A   26237.11190198 -.00000271  00000-0  00000-0 0  9993
2 13890  62.5625 162.2060 6993593 274.2772  15.5456  2.00088086317190

Track MOLNIYA 1-56 in real time with AllMySat

Download on the App Store